Showing default

KINEIS-1B, 60079

Orbit data source: Space-Track

KINEIS-1B, 60079 is a French payload satellite in SSO that was launched on Thu, 20 Jun 2024 UTC via an ELECTRON launch vehicle from the Rocket Lab Launch Complex (RLLC). Payload-class satellites include a variety of spacecraft equipped with specific instruments for various scientific and technological missions. These include communications satellites like Starlink; space stations such as the ISS; scientific satellites like the Hubble; Earth observation satellites from companies like Planet Labs, Umbra, and HawkEye 360; GPS; miniature CubeSats for education and research; and military/defense satellites.

Loading next visibility...
Identifier
60079, 2024-114A
Orbit
SSO
Last TLE update
3 hours ago
Origin
Manufacturer
KINEIS
Mission
Operational Commercial Communications
Bus & Motor
CUBESAT 16U, Unknown motor
Mass
28 kg wet, 28 kg dry
Launch date (UTC)
2024-06-20 (11 months ago)
Launch vehicle
ELECTRON
Launch site
Rocket Lab Launch Complex (RLLC)
Object type
Payload
Rocket body
Debris
Shape & HBR
Box + 2 Pan + 1 Ant, 1.6 m
Radar Cross Section
0.229 m², Medium (>0.1 m² and < 1m²)

Expand to show TLE details & history

TLE from 3 hours ago
0 KINEIS-1B
1 60079U 24114A   25129.18410530  .00001350  00000-0  18727-3 0  9992
2 60079  98.0109 149.8896 0001985   5.4459 354.6774 14.79570478 47645
Epoch: 2025-05-09T04:25Z
Definitive object data (Epoch: 2025-05-09T04:25:06.697Z)
Latitude
-0.00001°
Longitude
-143.6322°
Altitude
632.312 km
Speed
7.543 km/s
True Right ascension
09h 59m 33s
True Declination
0° 00' 00"
Sunlit
Object was in daylight at TLE epoch
Visualization TLE readout
Latitude
-43.24529°
Longitude
28.91194°
Altitude
648.431 km
Speed
7.532 km/s
Apparent Right ascension
00h 16m 00s
Apparent Declination
-50° 17' 18"
Sunlit
Object is in daylight
Visualization observer readout
Local Sidereal Time
15:11:51
Azimuth
123.621° SE
Elevation
-57.814°
Doppler factor
1
Orbital elements
Apogee altitude
629.117 km
Perigee altitude
626.336 km
Semi-major axis
7,005.864 km
Eccentricity
0.0001985
Inclination
98.0109°
RAAN
149.8896°
Arg. of periapsis
5.4459°
True anomaly
354.67529°
Mean anomaly
354.6774°
Eccentric anomaly
354.67634°
Mean motion
3.70127 °/min
BSTAR
0.00018727
Orbital period
97.26 mins
Loading maneuver chart data...
Loading SW <> Apogee altitude chart data...
Loading historical data...
Loading historical data...
Loading historical data...
Loading historical data...
Loading historical data...
Loading historical data...
Loading historical data...

KINEIS-1B Visibility forecast

Observer location: undefined°, undefined°

Span
Click to sort rows by Start time (UTC) header in descending order
Start Az.
Max El. time (UTC)
Max El. Az.
Max El.
End time (UTC)
End Az.
5 mins2025-05-09 13:07:55.709Z58.244° ENE2025-05-09 13:09:55.709Z87.212° E15.423°2025-05-09 13:12:55.709Z130.985° SE
6 mins2025-05-09 14:43:55.709Z350.837° N2025-05-09 14:46:55.709Z280.74° WNW33.93°2025-05-09 14:49:55.709Z222.334° SW
7 mins2025-05-10 01:38:55.709Z186.152° SSW2025-05-10 01:41:55.709Z267.018° W39.729°2025-05-10 01:45:55.709Z338.121° N
|